ORBCOMM FM114 (41179 NORAD) Tracking and Keplerian Element Data

This shows tracking and keplerian element data for the satellite.

Feedback or suggestion? Click here.




ElementValue
Catalog41179
NameORBCOMM FM114
Epoch Orbit48496
Epoch Day34.51628825
Epoch Year2025
RAAN198.0463
Inclination47.001
Eccentricity0.0001577
Argument of Perigee118.4602
Mean Anonmoly241.6443
Mean Motion14.57824719
Decay Rate1.422E-05
L11 41179U 15081A 25034.51628825 .00001422 00000+0 34430-3 0 9993
L22 41179 47.0010 198.0463 0001577 118.4602 241.6443 14.57824719484962



Live tracking and technical data element details for ORBCOMM FM114 (NORAD 41179). ORBCOMM FM114 can be tracked NOW for your location showing map with azimuth and elevation plus other details from your city location.







IsCatalogInMostPopularTable: catalog: 41179, numindb: 569
Update: records affected: 1



GetName: 41179 ORBCOMM FM114

Hit Count: updated at: Sat, 24 May 2025 16:31:35 GMT